Starlink 30168

operational
NORAD ID: 57513 Int'l Des: 2023-113 Owner: SPXS Country: US Constellation: starlink
LEOCIRCULAR

Starlink 30168について

説明を読み込み中...

リアルタイム位置

3D地球を読み込み中...

次回通過

高度履歴

Altitude vs Time

uPlot chart will show altitude changes over time

軌道要素

1 57513U 23113U 25260.30682188 .00000339 00000-0 40123-4 0 9991
2 57513 43.0016 239.8736 0000665 184.3542 175.7294 15.02533780117412
Epoch: Sep 17, 2025 • Age: 32 hours

現在のステータス

高度 561.1 km
速度 7.59 km/s
衛星直下点 36.14°N, 52.89°E
打ち上げ日 Aug 7, 2023
運用期間 2.1 years
タイプ internet

技術仕様

分類 Payload
質量 730.00 kg
乾燥質量 700.00 kg
総質量 730.00 kg
長さ 0.30 m
直径 4.10 m
スパン 29.00 m
形状 Box + pan
製造者 SPXS
バスタイプ Starlink V2M
フェーズステータス In Orbit
所有者/国 SPXS/US

大規模コンステレーション

Loading constellations...